,,Stat6,,Stat2,,Stat8,,Stat9,,Stat10,,Wind1,,Wind1,
time,status,PA1M_AVG,status,PR1M_SUM,status,RH1M_AVG,status,SR1M_AVG,status,TA1M_AVG,status,W1dAve1m,status,W1sAve1m,
2005-12-13, 00:00:00,VALID,917.405,VALID,0,VALID,99.1941,VALID,0,VALID,19.1987,VALID,355,VALID,0.431771,
2005-12-13, 00:01:00,VALID,917.399,VALID,0,VALID,99.2258,VALID,0,VALID,19.1594,VALID,354,VALID,0.0724927,
2005-12-13, 00:02:00,VALID,917.369,VALID,0,VALID,99.3314,VALID,0,VALID,19.1433,VALID,354,VALID,0.0174851,
2005-12-13, 00:03:00,VALID,917.37,VALID,0,VALID,99.4891,VALID,0,VALID,19.15,VALID,354,VALID,0.134084,
2005-12-13, 00:04:00,VALID,917.374,VALID,0,VALID,99.5832,VALID,0,VALID,19.1338,VALID,354,VALID,0,
2005-12-13, 00:05:00,VALID,917.362,VALID,0,VALID,99.6925,VALID,0,VALID,19.1341,VALID,300,VALID,0.394259,
2005-12-13, 00:06:00,VALID,917.344,VALID,0,VALID,99.8171,VALID,0,VALID,19.1241,VALID,249,VALID,0.181734,
2005-12-13, 00:07:00,VALID,917.342,VALID,0,VALID,99.9011,VALID,0.0169808,VALID,19.1311,VALID,249,VALID,0.0074314,
2005-12-13, 00:08:00,VALID,917.328,VALID,0,VALID,99.9842,VALID,-0.0169808,VALID,19.1182,VALID,308,VALID,0.379439,
2005-12-13, 00:09:00,VALID,917.336,VALID,0,VALID,100,VALID,-0.0339617,VALID,19.1177,VALID,344,VALID,0.316497,
2005-12-13, 00:10:00,VALID,917.329,VALID,0,VALID,100,VALID,0,VALID,19.1179,VALID,344,VALID,0.323864,
2005-12-13, 00:11:00,VALID,917.329,VALID,0,VALID,100,VALID,-0.0169808,VALID,19.1114,VALID,344,VALID,0.317472,
2005-12-13, 00:12:00,VALID,917.31,VALID,0,VALID,100,VALID,0,VALID,19.1082,VALID,348,VALID,0.405859,
2005-12-13, 00:13:00,VALID,917.312,VALID,0,VALID,100,VALID,0,VALID,19.1085,VALID,4,VALID,0.585938,
2005-12-13, 00:14:00,VALID,917.31,VALID,0,VALID,100,VALID,-0.0169808,VALID,19.102,VALID,5,VALID,0.368862,
2005-12-13, 00:15:00,VALID,917.287,VALID,0,VALID,100,VALID,0.0169808,VALID,19.105,VALID,5,VALID,0.455915,
2005-12-13, 00:16:00,VALID,917.298,VALID,0,VALID,100,VALID,0,VALID,19.098,VALID,10,VALID,0.645312,
2005-12-13, 00:17:00,VALID,917.312,VALID,0,VALID,100,VALID,0.0169808,VALID,19.102,VALID,356,VALID,0.613991,
2005-12-13, 00:18:00,VALID,917.32,VALID,0,VALID,100,VALID,0,VALID,19.0799,VALID,7,VALID,0.60556,
2005-12-13, 00:19:00,VALID,917.309,VALID,0,VALID,100,VALID,0.0169808,VALID,19.0664,VALID,9,VALID,0.487165,
2005-12-13, 00:20:00,VALID,917.298,VALID,0,VALID,100,VALID,0.0169808,VALID,19.0535,VALID,9,VALID,0.34013,
2005-12-13, 00:21:00,VALID,917.285,VALID,0,VALID,100,VALID,0.0169808,VALID,19.0602,VALID,9,VALID,0.37391,
2005-12-13, 00:22:00,VALID,917.255,VALID,0,VALID,100,VALID,0.0169808,VALID,19.0498,VALID,9,VALID,0.426367,
2005-12-13, 00:23:00,VALID,917.243,VALID,0,VALID,100,VALID,0.0169808,VALID,19.0503,VALID,9,VALID,0.297433,
2005-12-13, 00:24:00,VALID,917.236,VALID,0,VALID,100,VALID,-0.0169808,VALID,19.0498,VALID,9,VALID,0.25362,
2005-12-13, 00:25:00,VALID,917.22,VALID,0,VALID,100,VALID,-0.0509425,VALID,19.0567,VALID,9,VALID,0.0767045,
2005-12-13, 00:26:00,VALID,917.21,VALID,0,VALID,100,VALID,0,VALID,19.05,VALID,9,VALID,0.161585,
2005-12-13, 00:27:00,VALID,917.197,VALID,0,VALID,100,VALID,0.0169808,VALID,19.0662,VALID,9,VALID,0,
2005-12-13, 00:28:00,VALID,917.198,VALID,0,VALID,100,VALID,0,VALID,19.0699,VALID,9,VALID,0.000181686,
2005-12-13, 00:29:00,VALID,917.205,VALID,0,VALID,100,VALID,0,VALID,19.063,VALID,9,VALID,0.212728,
2005-12-13, 00:30:00,VALID,917.195,VALID,0,VALID,100,VALID,0,VALID,19.0761,VALID,9,VALID,0.405362,
2005-12-13, 00:31:00,VALID,917.206,VALID,0,VALID,100,VALID,0,VALID,19.0856,VALID,9,VALID,0.361374,
2005-12-13, 00:32:00,VALID,917.206,VALID,0,VALID,100,VALID,0,VALID,19.0826,VALID,9,VALID,0.451308,
2005-12-13, 00:33:00,VALID,917.193,VALID,0,VALID,100,VALID,0.0169808,VALID,19.0858,VALID,9,VALID,0.286577,
2005-12-13, 00:34:00,VALID,917.165,VALID,0,VALID,100,VALID,-0.0509425,VALID,19.0724,VALID,9,VALID,0.273619,
2005-12-13, 00:35:00,VALID,917.166,VALID,0,VALID,100,VALID,-0.0679233,VALID,19.0563,VALID,5,VALID,0.330124,
2005-12-13, 00:36:00,VALID,917.161,VALID,0,VALID,100,VALID,-0.0169808,VALID,19.0505,VALID,320,VALID,0.686166,
2005-12-13, 00:37:00,VALID,917.165,VALID,0,VALID,100,VALID,-0.0679233,VALID,19.0704,VALID,319,VALID,0.30785,
2005-12-13, 00:38:00,VALID,917.15,VALID,0,VALID,100,VALID,-0.0509425,VALID,19.0572,VALID,319,VALID,0.228819,
2005-12-13, 00:39:00,VALID,917.146,VALID,0,VALID,100,VALID,-0.0849042,VALID,19.0505,VALID,332,VALID,0.419513,
2005-12-13, 00:40:00,VALID,917.134,VALID,0,VALID,100,VALID,-0.0509425,VALID,19.0736,VALID,284,VALID,0.236861,
2005-12-13, 00:41:00,VALID,917.105,VALID,0,VALID,100,VALID,-0.0509425,VALID,19.0704,VALID,316,VALID,0.361235,
2005-12-13, 00:42:00,VALID,917.102,VALID,0,VALID,100,VALID,-0.0509425,VALID,19.0438,VALID,359,VALID,0.762718,
2005-12-13, 00:43:00,VALID,917.098,VALID,0,VALID,100,VALID,-0.0339617,VALID,19.0441,VALID,10,VALID,0.853472,
2005-12-13, 00:44:00,VALID,917.095,VALID,0,VALID,100,VALID,-0.0339617,VALID,19.0433,VALID,15,VALID,0.617543,
2005-12-13, 00:45:00,VALID,917.092,VALID,0,VALID,100,VALID,-0.0339617,VALID,19.0602,VALID,356,VALID,0.595982,
2005-12-13, 00:46:00,VALID,917.09,VALID,0,VALID,100,VALID,-0.0169808,VALID,19.0344,VALID,335,VALID,0.598474,
2005-12-13, 00:47:00,VALID,917.095,VALID,0,VALID,100,VALID,-0.0339617,VALID,19.0286,VALID,346,VALID,0.494978,
2005-12-13, 00:48:00,VALID,917.09,VALID,0,VALID,100,VALID,-0.0509425,VALID,19.018,VALID,7,VALID,0.353516,
2005-12-13, 00:49:00,VALID,917.088,VALID,0,VALID,100,VALID,-0.0339617,VALID,19.0307,VALID,6,VALID,0.382254,
2005-12-13, 00:50:00,VALID,917.086,VALID,0,VALID,100,VALID,0,VALID,19.0341,VALID,4,VALID,0.515262,
2005-12-13, 00:51:00,VALID,917.08,VALID,0,VALID,100,VALID,-0.0169808,VALID,19.0371,VALID,11,VALID,0.80191,
2005-12-13, 00:52:00,VALID,917.077,VALID,0,VALID,100,VALID,-0.0169808,VALID,19.051,VALID,19,VALID,0.892299,
2005-12-13, 00:53:00,VALID,917.09,VALID,0,VALID,100,VALID,-0.0679233,VALID,19.0577,VALID,27,VALID,0.795201,
2005-12-13, 00:54:00,VALID,917.084,VALID,0,VALID,100,VALID,0,VALID,19.0505,VALID,346,VALID,0.675347,
2005-12-13, 00:55:00,VALID,917.085,VALID,0,VALID,100,VALID,-0.0169808,VALID,19.0408,VALID,355,VALID,0.610828,
2005-12-13, 00:56:00,VALID,917.081,VALID,0,VALID,99.9682,VALID,-0.0339617,VALID,19.0344,VALID,355,VALID,0.179087,
2005-12-13, 00:57:00,VALID,917.095,VALID,0,VALID,99.9519,VALID,-0.0339617,VALID,19.0344,VALID,355,VALID,0.0394022,
2005-12-13, 00:58:00,VALID,917.089,VALID,0,VALID,99.9138,VALID,-0.0509425,VALID,19.0311,VALID,355,VALID,0,
2005-12-13, 00:59:00,VALID,917.094,VALID,0,VALID,99.8922,VALID,-0.0339617,VALID,19.0346,VALID,355,VALID,0.10973,
2005-12-13, 01:00:00,VALID,917.087,VALID,0,VALID,99.8947,VALID,-0.0339617,VALID,19.0309,VALID,357,VALID,0.402616,
2005-12-13, 01:01:00,VALID,917.066,VALID,0,VALID,99.9545,VALID,-0.0339617,VALID,19.0443,VALID,4,VALID,0.569531,
2005-12-13, 01:02:00,VALID,917.061,VALID,0,VALID,99.9176,VALID,-0.0509425,VALID,19.0443,VALID,12,VALID,0.713246,
2005-12-13, 01:03:00,VALID,917.05,VALID,0,VALID,99.9176,VALID,0,VALID,19.0503,VALID,357,VALID,0.701563,
2005-12-13, 01:04:00,VALID,917.025,VALID,0,VALID,99.9392,VALID,0,VALID,19.0512,VALID,320,VALID,0.564546,
2005-12-13, 01:05:00,VALID,917.005,VALID,0,VALID,99.9418,VALID,-0.0509425,VALID,19.0411,VALID,309,VALID,0.257449,
2005-12-13, 01:06:00,VALID,916.995,VALID,0,VALID,100,VALID,-0.0509425,VALID,19.0639,VALID,309,VALID,0.177507,
2005-12-13, 01:07:00,VALID,916.973,VALID,0,VALID,100,VALID,-0.0509425,VALID,19.054,VALID,309,VALID,0.0425347,
2005-12-13, 01:08:00,VALID,916.962,VALID,0,VALID,100,VALID,-0.0339617,VALID,19.0639,VALID,309,VALID,0.217578,
2005-12-13, 01:09:00,VALID,916.957,VALID,0,VALID,100,VALID,-0.0339617,VALID,19.0672,VALID,309,VALID,0.106357,
2005-12-13, 01:10:00,VALID,916.936,VALID,0,VALID,100,VALID,-0.0169808,VALID,19.0639,VALID,309,VALID,0,
2005-12-13, 01:11:00,VALID,916.919,VALID,0,VALID,100,VALID,-0.0339617,VALID,19.0505,VALID,309,VALID,0.00109012,
2005-12-13, 01:12:00,VALID,916.899,VALID,0,VALID,100,VALID,-0.0509425,VALID,19.0672,VALID,309,VALID,0.172602,
2005-12-13, 01:13:00,VALID,916.88,VALID,0,VALID,100,VALID,-0.0339617,VALID,19.0771,VALID,309,VALID,0.233445,
2005-12-13, 01:14:00,VALID,916.853,VALID,0,VALID,100,VALID,-0.0339617,VALID,19.0637,VALID,323,VALID,0.345424,
2005-12-13, 01:15:00,VALID,916.835,VALID,0,VALID,100,VALID,-0.0509425,VALID,19.0505,VALID,353,VALID,0.477108,
2005-12-13, 01:16:00,VALID,916.824,VALID,0,VALID,100,VALID,-0.0679233,VALID,19.0411,VALID,355,VALID,0.303571,
2005-12-13, 01:17:00,VALID,916.811,VALID,0,VALID,100,VALID,-0.0339617,VALID,19.0483,VALID,301,VALID,0.232599,
2005-12-13, 01:18:00,VALID,916.793,VALID,0,VALID,100,VALID,-0.0679233,VALID,19.0381,VALID,198,VALID,0.448765,
2005-12-13, 01:19:00,VALID,916.781,VALID,0,VALID,100,VALID,-0.0339617,VALID,19.0316,VALID,201,VALID,0.351017,
2005-12-13, 01:20:00,VALID,916.77,VALID,0,VALID,100,VALID,-0.0679233,VALID,19.0289,VALID,222,VALID,0.480469,
2005-12-13, 01:21:00,VALID,916.759,VALID,0,VALID,100,VALID,-0.0679233,VALID,18.9928,VALID,222,VALID,0.298478,
2005-12-13, 01:22:00,VALID,916.755,VALID,0,VALID,100,VALID,-0.0339617,VALID,18.9831,VALID,222,VALID,0.141897,
2005-12-13, 01:23:00,VALID,916.741,VALID,0,VALID,100,VALID,-0.0169808,VALID,18.97,VALID,222,VALID,0.0145833,
2005-12-13, 01:24:00,VALID,916.717,VALID,0,VALID,100,VALID,-0.0169808,VALID,18.9667,VALID,308,VALID,0.732195,
2005-12-13, 01:25:00,VALID,916.706,VALID,0,VALID,100,VALID,-0.0509425,VALID,18.9732,VALID,18,VALID,1.03275,
2005-12-13, 01:26:00,VALID,916.708,VALID,0,VALID,100,VALID,-0.0679233,VALID,18.9503,VALID,12,VALID,0.476376,
2005-12-13, 01:27:00,VALID,916.675,VALID,0,VALID,100,VALID,-0.0339617,VALID,18.9277,VALID,15,VALID,0.415334,
2005-12-13, 01:28:00,VALID,916.667,VALID,0,VALID,100,VALID,-0.0339617,VALID,18.9317,VALID,21,VALID,0.520579,
2005-12-13, 01:29:00,VALID,916.643,VALID,0,VALID,100,VALID,-0.0339617,VALID,18.9319,VALID,20,VALID,0.404687,
2005-12-13, 01:30:00,VALID,916.643,VALID,0,VALID,100,VALID,-0.0339617,VALID,18.9088,VALID,20,VALID,0.270433,
2005-12-13, 01:31:00,VALID,916.625,VALID,0,VALID,100,VALID,-0.0679233,VALID,18.8991,VALID,20,VALID,0.140253,
2005-12-13, 01:32:00,VALID,916.607,VALID,0,VALID,100,VALID,-0.0509425,VALID,18.9026,VALID,20,VALID,0.015253,
2005-12-13, 01:33:00,VALID,916.605,VALID,0,VALID,100,VALID,-0.0339617,VALID,18.8924,VALID,20,VALID,0,
2005-12-13, 01:34:00,VALID,916.587,VALID,0,VALID,100,VALID,-0.0849042,VALID,18.8795,VALID,20,VALID,0.118075,
2005-12-13, 01:35:00,VALID,916.585,VALID,0,VALID,100,VALID,-0.0509425,VALID,18.873,VALID,20,VALID,0.229833,
2005-12-13, 01:36:00,VALID,916.587,VALID,0,VALID,100,VALID,-0.0339617,VALID,18.8539,VALID,20,VALID,0.0804116,
2005-12-13, 01:37:00,VALID,916.581,VALID,0,VALID,100,VALID,-0.0169808,VALID,18.8506,VALID,20,VALID,0.100472,
2005-12-13, 01:38:00,VALID,916.564,VALID,0,VALID,100,VALID,-0.0339617,VALID,18.8444,VALID,20,VALID,0.0293445,
2005-12-13, 01:39:00,VALID,916.547,VALID,0,VALID,100,VALID,-0.0339617,VALID,18.8412,VALID,20,VALID,0.00186012,
2005-12-13, 01:40:00,VALID,916.533,VALID,0,VALID,100,VALID,-0.0679233,VALID,18.8409,VALID,20,VALID,0,
2005-12-13, 01:41:00,VALID,916.516,VALID,0,VALID,100,VALID,-0.0509425,VALID,18.8407,VALID,20,VALID,0.00111607,
2005-12-13, 01:42:00,VALID,916.513,VALID,0,VALID,100,VALID,-0.0679233,VALID,18.8511,VALID,20,VALID,0,
2005-12-13, 01:43:00,VALID,916.481,VALID,0,VALID,100,VALID,-0.0849042,VALID,18.8414,VALID,20,VALID,0,
2005-12-13, 01:44:00,VALID,916.45,VALID,0,VALID,100,VALID,-0.0509425,VALID,18.8382,VALID,20,VALID,0,
2005-12-13, 01:45:00,VALID,916.435,VALID,0,VALID,100,VALID,-0.118866,VALID,18.8546,VALID,20,VALID,0.206101,
2005-12-13, 01:46:00,VALID,916.413,VALID,0,VALID,100,VALID,-0.0679233,VALID,18.8673,VALID,20,VALID,0.263797,
2005-12-13, 01:47:00,VALID,916.392,VALID,0,VALID,100,VALID,-0.101885,VALID,18.8638,VALID,7,VALID,0.289789,
2005-12-13, 01:48:00,VALID,916.368,VALID,0,VALID,100,VALID,-0.0169808,VALID,18.8966,VALID,5,VALID,0.364769,
2005-12-13, 01:49:00,VALID,916.35,VALID,0,VALID,100,VALID,-0.0849042,VALID,18.8926,VALID,5,VALID,0.17488,
2005-12-13, 01:50:00,VALID,916.338,VALID,0,VALID,100,VALID,-0.0509425,VALID,18.9123,VALID,5,VALID,0.288132,
2005-12-13, 01:51:00,VALID,916.322,VALID,0,VALID,100,VALID,-0.0849042,VALID,18.9287,VALID,345,VALID,0.431686,
2005-12-13, 01:52:00,VALID,916.305,VALID,0,VALID,100,VALID,-0.0849042,VALID,18.9257,VALID,310,VALID,0.374645,
2005-12-13, 01:53:00,VALID,916.295,VALID,0,VALID,100,VALID,-0.101885,VALID,18.9351,VALID,294,VALID,0.42152,
2005-12-13, 01:54:00,VALID,916.267,VALID,0,VALID,100,VALID,-0.0679233,VALID,18.9476,VALID,268,VALID,0.452553,
2005-12-13, 01:55:00,VALID,916.249,VALID,0,VALID,100,VALID,-0.0339617,VALID,18.9578,VALID,260,VALID,0.417597,
2005-12-13, 01:56:00,VALID,916.223,VALID,0,VALID,100,VALID,-0.0509425,VALID,18.9742,VALID,254,VALID,0.570703,
2005-12-13, 01:57:00,VALID,916.192,VALID,0,VALID,100,VALID,-0.0339617,VALID,18.9702,VALID,254,VALID,0.231517,
2005-12-13, 01:58:00,VALID,916.148,VALID,0,VALID,100,VALID,-0.0509425,VALID,18.9739,VALID,258,VALID,0.0442708,
2005-12-13, 01:59:00,VALID,916.118,VALID,0,VALID,100,VALID,-0.0509425,VALID,18.9866,VALID,337,VALID,0.600038,
2005-12-13, 02:00:00,VALID,916.083,VALID,0,VALID,100,VALID,-0.0509425,VALID,18.9995,VALID,11,VALID,1.0322,
2005-12-13, 02:01:00,VALID,916.07,VALID,0,VALID,100,VALID,-0.0509425,VALID,18.9894,VALID,16,VALID,0.644436,
2005-12-13, 02:02:00,VALID,916.047,VALID,0,VALID,100,VALID,-0.0509425,VALID,18.9801,VALID,351,VALID,0.335747,
2005-12-13, 02:03:00,VALID,916.04,VALID,0,VALID,100,VALID,-0.0679233,VALID,18.9739,VALID,348,VALID,0.0701389,
2005-12-13, 02:04:00,VALID,916.043,VALID,0,VALID,100,VALID,-0.0679233,VALID,18.9543,VALID,259,VALID,0.48819,
2005-12-13, 02:05:00,VALID,916.014,VALID,0,VALID,100,VALID,-0.0679233,VALID,18.9448,VALID,234,VALID,0.382457,
2005-12-13, 02:06:00,VALID,915.945,VALID,0,VALID,100,VALID,-0.101885,VALID,18.9418,VALID,234,VALID,0.0226935,
2005-12-13, 02:07:00,VALID,915.902,VALID,0,VALID,100,VALID,-0.0849042,VALID,18.9483,VALID,1,VALID,1.02184,
2005-12-13, 02:08:00,VALID,915.879,VALID,0,VALID,100,VALID,-0.0679233,VALID,18.9612,VALID,22,VALID,0.825462,
2005-12-13, 02:09:00,VALID,915.863,VALID,0,VALID,100,VALID,-0.0849042,VALID,18.9443,VALID,40,VALID,0.396205,
2005-12-13, 02:10:01,VALID,915.876,VALID,0,VALID,100,VALID,-0.0679233,VALID,18.958,VALID,32,VALID,0.233631,
2005-12-13, 02:11:00,VALID,915.875,VALID,0,VALID,100,VALID,-0.0339617,VALID,18.9575,VALID,20,VALID,0.263579,
2005-12-13, 02:12:00,VALID,915.851,VALID,0,VALID,100,VALID,-0.0509425,VALID,18.9508,VALID,190,VALID,0.741655,
2005-12-13, 02:13:01,VALID,915.814,VALID,0,VALID,100,VALID,-0.0509425,VALID,18.9575,VALID,183,VALID,0.320499,
2005-12-13, 02:14:01,VALID,915.775,VALID,0,VALID,100,VALID,-0.0509425,VALID,18.9675,VALID,119,VALID,0.540153,
2005-12-13, 02:15:00,VALID,915.746,VALID,0,VALID,100,VALID,-0.0339617,VALID,18.9704,VALID,19,VALID,0.987038,
2005-12-13, 02:16:00,VALID,915.73,VALID,0,VALID,100,VALID,-0.0509425,VALID,18.9804,VALID,19,VALID,0.917188,
2005-12-13, 02:17:00,VALID,915.733,VALID,0,VALID,100,VALID,-0.0849042,VALID,18.9769,VALID,21,VALID,0.105755,
2005-12-13, 02:18:01,VALID,915.732,VALID,0,VALID,100,VALID,-0.0169808,VALID,18.9769,VALID,341,VALID,0.249628,
2005-12-13, 02:19:00,VALID,915.702,VALID,0,VALID,100,VALID,-0.0509425,VALID,18.9836,VALID,355,VALID,0.34811,
2005-12-13, 02:20:00,VALID,915.672,VALID,0,VALID,100,VALID,-0.0509425,VALID,18.9702,VALID,7,VALID,0.99314,
2005-12-13, 02:21:00,VALID,915.653,VALID,0,VALID,100,VALID,-0.0849042,VALID,18.9607,VALID,19,VALID,1.46439,
2005-12-13, 02:22:00,VALID,915.644,VALID,0,VALID,100,VALID,-0.0679233,VALID,18.9868,VALID,35,VALID,1.1209,
2005-12-13, 02:23:00,VALID,915.679,VALID,0,VALID,100,VALID,-0.0509425,VALID,18.9799,VALID,319,VALID,0.565799,
2005-12-13, 02:24:00,VALID,915.718,VALID,0,VALID,100,VALID,-0.101885,VALID,19.0005,VALID,206,VALID,0.891578,
2005-12-13, 02:25:00,VALID,915.705,VALID,0,VALID,100,VALID,-0.0849042,VALID,18.9906,VALID,189,VALID,0.908918,
2005-12-13, 02:26:00,VALID,915.686,VALID,0,VALID,100,VALID,-0.0339617,VALID,18.9901,VALID,199,VALID,0.835392,
2005-12-13, 02:27:00,VALID,915.668,VALID,0,VALID,100,VALID,-0.101885,VALID,18.9933,VALID,173,VALID,0.789249,
2005-12-13, 02:28:00,VALID,915.646,VALID,0,VALID,100,VALID,-0.0679233,VALID,18.9868,VALID,169,VALID,0.9617,
2005-12-13, 02:29:00,VALID,915.635,VALID,0,VALID,100,VALID,-0.0679233,VALID,18.9901,VALID,168,VALID,0.345881,
2005-12-13, 02:30:00,VALID,915.631,VALID,0,VALID,100,VALID,-0.0509425,VALID,19.0032,VALID,168,VALID,0.0952744,
2005-12-13, 02:31:00,VALID,915.626,VALID,0,VALID,100,VALID,-0.0849042,VALID,19.0162,VALID,168,VALID,0.0220486,
2005-12-13, 02:32:01,VALID,915.607,VALID,0,VALID,99.9339,VALID,-0.0169808,VALID,19.0254,VALID,296,VALID,0.552973,
2005-12-13, 02:33:00,VALID,915.59,VALID,0,VALID,99.8502,VALID,-0.0509425,VALID,19.0316,VALID,14,VALID,0.62718,
2005-12-13, 02:34:00,VALID,915.606,VALID,0,VALID,99.8362,VALID,-0.0509425,VALID,19.0189,VALID,313,VALID,0.758721,
2005-12-13, 02:35:00,VALID,915.575,VALID,0,VALID,99.9888,VALID,-0.0169808,VALID,19.0125,VALID,247,VALID,0.416466,
2005-12-13, 02:36:00,VALID,915.572,VALID,0,VALID,100,VALID,-0.0509425,VALID,19.0032,VALID,349,VALID,0.495313,
2005-12-13, 02:37:01,VALID,915.571,VALID,0,VALID,100,VALID,-0.0169808,VALID,18.9903,VALID,269,VALID,0.23601,
2005-12-13, 02:38:00,VALID,915.544,VALID,0,VALID,100,VALID,-0.0339617,VALID,18.9771,VALID,226,VALID,0.17081,
2005-12-13, 02:39:01,VALID,915.529,VALID,0,VALID,100,VALID,-0.0339617,VALID,18.9767,VALID,228,VALID,0.283668,
2005-12-13, 02:40:00,VALID,915.496,VALID,0,VALID,100,VALID,-0.0169808,VALID,18.9739,VALID,203,VALID,1.1084,
2005-12-13, 02:41:01,VALID,915.503,VALID,0,VALID,99.9148,VALID,-0.0339617,VALID,19.0025,VALID,248,VALID,0.751116,
2005-12-13, 02:42:00,VALID,915.478,VALID,0,VALID,99.882,VALID,-0.0339617,VALID,19.0873,VALID,234,VALID,0.516927,
2005-12-13, 02:43:00,VALID,915.472,VALID,0,VALID,99.9766,VALID,-0.0169808,VALID,19.0803,VALID,231,VALID,0.273801,
2005-12-13, 02:44:00,VALID,915.46,VALID,0,VALID,100,VALID,-0.0849042,VALID,19.0679,VALID,231,VALID,0.166295,
2005-12-13, 02:45:00,VALID,915.45,VALID,0,VALID,100,VALID,-0.0339617,VALID,19.0448,VALID,234,VALID,0.0292969,
2005-12-13, 02:46:00,VALID,915.464,VALID,0,VALID,100,VALID,-0.0339617,VALID,19.0219,VALID,352,VALID,0.519531,
2005-12-13, 02:47:00,VALID,915.455,VALID,0,VALID,100,VALID,-0.0339617,VALID,19.0122,VALID,356,VALID,0.228993,
2005-12-13, 02:48:00,VALID,915.462,VALID,0,VALID,100,VALID,-0.0509425,VALID,19.0125,VALID,325,VALID,0.195313,
2005-12-13, 02:49:01,VALID,915.462,VALID,0,VALID,100,VALID,-0.0849042,VALID,18.9864,VALID,223,VALID,0.35883,
2005-12-13, 02:50:01,VALID,915.469,VALID,0,VALID,100,VALID,-0.0339617,VALID,18.9702,VALID,224,VALID,0.111235,
2005-12-13, 02:51:00,VALID,915.48,VALID,0,VALID,100,VALID,0,VALID,18.9573,VALID,225,VALID,0.0336119,
2005-12-13, 02:52:00,VALID,915.497,VALID,0,VALID,100,VALID,-0.0169808,VALID,18.9443,VALID,228,VALID,0.154687,
2005-12-13, 02:53:00,VALID,915.518,VALID,0,VALID,100,VALID,-0.0509425,VALID,18.9478,VALID,228,VALID,0.0400152,
2005-12-13, 02:54:01,VALID,915.509,VALID,0,VALID,100,VALID,-0.0679233,VALID,18.9543,VALID,228,VALID,0.0785061,
2005-12-13, 02:55:01,VALID,915.487,VALID,0,VALID,100,VALID,-0.0849042,VALID,18.9446,VALID,228,VALID,0,
2005-12-13, 02:56:01,VALID,915.464,VALID,0,VALID,100,VALID,-0.0509425,VALID,18.9615,VALID,339,VALID,0.58113,
2005-12-13, 02:57:00,VALID,915.454,VALID,0,VALID,100,VALID,-0.0679233,VALID,18.9508,VALID,13,VALID,0.714753,
2005-12-13, 02:58:00,VALID,915.44,VALID,0,VALID,100,VALID,-0.0849042,VALID,18.9742,VALID,13,VALID,0.261719,
2005-12-13, 02:59:00,VALID,915.421,VALID,0,VALID,100,VALID,-0.0509425,VALID,18.9478,VALID,13,VALID,0,
2005-12-13, 03:00:00,VALID,915.415,VALID,0,VALID,100,VALID,-0.0509425,VALID,18.9607,VALID,13,VALID,0,
2005-12-13, 03:01:01,VALID,915.406,VALID,0,VALID,100,VALID,-0.0339617,VALID,18.9637,VALID,13,VALID,0,
2005-12-13, 03:02:00,VALID,915.4,VALID,0,VALID,100,VALID,-0.0849042,VALID,18.9679,VALID,13,VALID,0.0340909,
2005-12-13, 03:03:00,VALID,915.395,VALID,0,VALID,100,VALID,-0.0679233,VALID,18.9739,VALID,13,VALID,0.0924479,
2005-12-13, 03:04:00,VALID,915.394,VALID,0,VALID,100,VALID,-0.0509425,VALID,18.9834,VALID,13,VALID,0.031994,
2005-12-13, 03:05:00,VALID,915.386,VALID,0,VALID,100,VALID,-0.0679233,VALID,18.9928,VALID,13,VALID,0,
2005-12-13, 03:06:01,VALID,915.378,VALID,0,VALID,100,VALID,-0.0849042,VALID,18.9963,VALID,13,VALID,0.326389,
2005-12-13, 03:07:00,VALID,915.356,VALID,0,VALID,100,VALID,-0.0509425,VALID,19.009,VALID,13,VALID,0.768056,
2005-12-13, 03:08:00,VALID,915.356,VALID,0,VALID,100,VALID,-0.0849042,VALID,19.0157,VALID,13,VALID,0.435082,
2005-12-13, 03:09:00,VALID,915.352,VALID,0,VALID,100,VALID,-0.0849042,VALID,19.0289,VALID,13,VALID,0.531783,
2005-12-13, 03:10:00,VALID,915.337,VALID,0,VALID,100,VALID,-0.0679233,VALID,19.0291,VALID,17,VALID,0.603468,
2005-12-13, 03:11:00,VALID,915.325,VALID,0,VALID,100,VALID,-0.0509425,VALID,19.0323,VALID,25,VALID,0.545117,
2005-12-13, 03:12:01,VALID,915.322,VALID,0,VALID,100,VALID,-0.0509425,VALID,19.0254,VALID,25,VALID,0.201672,
2005-12-13, 03:13:00,VALID,915.326,VALID,0,VALID,100,VALID,0,VALID,19.0286,VALID,25,VALID,0,
2005-12-13, 03:14:00,VALID,915.297,VALID,0,VALID,100,VALID,-0.0169808,VALID,19.0386,VALID,25,VALID,0.5,
2005-12-13, 03:15:00,VALID,915.313,VALID,0,VALID,100,VALID,-0.0169808,VALID,19.0316,VALID,25,VALID,0.25,
2005-12-13, 03:16:00,VALID,915.298,VALID,0,VALID,100,VALID,-0.0169808,VALID,19.0281,VALID,30,VALID,0.220424,
2005-12-13, 03:17:00,VALID,915.291,VALID,0,VALID,100,VALID,-0.0339617,VALID,19.0284,VALID,36,VALID,0.128196,
2005-12-13, 03:18:00,VALID,915.284,VALID,0,VALID,100,VALID,-0.0509425,VALID,19.0187,VALID,58,VALID,0.263951,
2005-12-13, 03:19:00,VALID,915.281,VALID,0,VALID,100,VALID,-0.0509425,VALID,19.0055,VALID,199,VALID,0.72433,
2005-12-13, 03:20:00,VALID,915.277,VALID,0,VALID,100,VALID,-0.0509425,VALID,18.9963,VALID,180,VALID,0.97066,
2005-12-13, 03:21:01,VALID,915.294,VALID,0,VALID,100,VALID,-0.0339617,VALID,18.9801,VALID,166,VALID,1.19767,
2005-12-13, 03:22:00,VALID,915.317,VALID,0,VALID,100,VALID,-0.0509425,VALID,18.9603,VALID,184,VALID,0.824219,
2005-12-13, 03:23:00,VALID,915.33,VALID,0,VALID,100,VALID,-0.0169808,VALID,18.967,VALID,193,VALID,0.263393,
2005-12-13, 03:24:00,VALID,915.331,VALID,0,VALID,100,VALID,-0.0339617,VALID,18.9732,VALID,193,VALID,0.049782,
2005-12-13, 03:25:00,VALID,915.338,VALID,0,VALID,100,VALID,-0.0169808,VALID,18.9767,VALID,234,VALID,0.420632,
2005-12-13, 03:26:00,VALID,915.343,VALID,0,VALID,100,VALID,-0.0169808,VALID,18.9603,VALID,234,VALID,0.85556,
2005-12-13, 03:27:00,VALID,915.341,VALID,0,VALID,100,VALID,-0.0339617,VALID,18.9506,VALID,238,VALID,0.970117,
2005-12-13, 03:28:00,VALID,915.329,VALID,0,VALID,100,VALID,-0.0169808,VALID,18.9637,VALID,251,VALID,0.592035,
2005-12-13, 03:29:00,VALID,915.324,VALID,0,VALID,100,VALID,-0.0509425,VALID,18.967,VALID,251,VALID,0.157522,
2005-12-13, 03:30:01,VALID,915.333,VALID,0,VALID,100,VALID,-0.0339617,VALID,18.9637,VALID,246,VALID,0.56141,
2005-12-13, 03:31:01,VALID,915.322,VALID,0,VALID,100,VALID,0,VALID,18.9538,VALID,246,VALID,1.69904,
2005-12-13, 03:32:01,VALID,915.31,VALID,0,VALID,100,VALID,-0.0169808,VALID,18.9645,VALID,257,VALID,1.42099,
2005-12-13, 03:33:00,VALID,915.304,VALID,0,VALID,100,VALID,-0.0169808,VALID,18.9575,VALID,177,VALID,0.671875,
2005-12-13, 03:34:00,VALID,915.296,VALID,0,VALID,100,VALID,-0.0339617,VALID,18.954,VALID,152,VALID,0.0323933,
2005-12-13, 03:35:01,VALID,915.289,VALID,0,VALID,100,VALID,0.0169808,VALID,18.9473,VALID,196,VALID,0.524581,
2005-12-13, 03:36:01,VALID,915.285,VALID,0,VALID,100,VALID,0,VALID,18.9409,VALID,242,VALID,0.606712,
2005-12-13, 03:37:01,VALID,915.26,VALID,0,VALID,100,VALID,-0.0169808,VALID,18.9443,VALID,307,VALID,0.238917,
2005-12-13, 03:38:01,VALID,915.251,VALID,0,VALID,100,VALID,-0.0339617,VALID,18.9704,VALID,306,VALID,0.254586,
2005-12-13, 03:39:01,VALID,915.254,VALID,0,VALID,100,VALID,-0.0339617,VALID,18.9707,VALID,232,VALID,0.808036,